User: anonymous   Login
Location: Unspecified
(0.0000°N, 0.0000°E)
Time: 09:59:52
(UTC+00:00)
Language:

ASTRA 1KR - Orbit

View from above orbital plane
View from above orbital plane
View from above satellite
View from above satellite

Ground track
Ground track

The orbit data is extracted from the following two-line orbital elements,

1 29055U 06012A   18050.32684872 +.00000114 +00000-0 +00000-0 0  9990
2 29055 000.0516 282.6426 0003634 359.0075 004.3973 01.00271831043264
Epoch (UTC): 19 February 2018 07:50:39
Eccentricity: 0.0003634
inclination: 0.0516°
perigee height: 35771 km
apogee height: 35801 km
right ascension of ascending node: 282.6426°
argument of perigee: 359.0075°
revolutions per day: 1.00271831
mean anomaly at epoch: 4.3973°
orbit number at epoch: 4326

The dashed part of the orbit path shows where the satellite is in the earth's shadow,  

DLR